Location: Bernadets
(43.3537°N, 0.3167°E)
Time: 21:53:38
(UTC+00:00)

USA 229 DEB - Pass Details

Date: 24 October 2021
Orbit: 944 x 1268 km, 63.4° (Epoch: 25 November)

Event Time Altitude Azimuth Distance (km) Brightness Sun altitude
Rises 19:13:15 0° 229° (SW) 3,627 7.1 -24.6°
Reaches altitude 10° 19:15:47 10° 234° (SW) 2,707 6.4 -25.1°
Maximum altitude 19:22:00 57° 312° (NW) 1,179 4.1 -26.2°
Enters shadow 19:26:54 19° 26° (NNE) 2,281 5.2 -27.1°
